Location: Burleson Alternative School
(32.5290°N, 97.3406°W)
Time: 10:10:01
(UTC+00:00)

Vanguard 2 Rocket - Pass Details

Date: 14 November 2025
Orbit: 553 x 3287 km, 32.9° (Epoch: 07 December)

Event Time Altitude Azimuth Distance (km) Brightness Sun altitude
Rises 23:50:06 0° 241° (WSW) 2,777 11.7 -5.0°
Reaches altitude 10° 23:52:22 10° 236° (SW) 1,823 10.0 -5.5°
Maximum altitude 23:56:09 49° 160° (SSE) 736 6.5 -6.2°
Drops below altitude 10° 00:00:29 10° 85° (E) 2,093 8.1 -7.1°
Enters shadow 00:00:56 - 84° (E) 2,277 8.3 -7.2°
